Vertical_Velocity
-4 -2 1 -2 4 5 -1 -7 -1 -2 -2 5 8 5 -2 -5 -3 0 1 2 -1 1
1 -2 -3 -1 -0 -1 0 2 2 2 2 1 -5 -1 -1 1 4 1 0 -1 1 1
2 3 2 -2 -1 1 -1 -2 2 0 3 2 2 1 1 3 1 1 1 -1 -1 2
-0 1 1 -0 -3 0 2 1 1 0 -1 -0 -0 0 -1 -0 2 2 1 -2 2 -0
-1 -2 -0 4 3 1 -1 -1 0 0 -0 0 2 -0 2 -1 0 1 1 -1 1 -0
-0 -1 -1 -0 1 0 1 2 2 2 1 -1 -1 1 -1 1 -1 -3 0 -4 1 3
-0 0 -0 0 0 -0 0 1 1 2 1 1 1 1 3 1 2 3 3 3 3 2
2 1 0 -0 -1 -1 1 2 1 2 2 4 5 6 3 4 4 1 -1 -1 -1 0
1 2 2 1 1 1 -1 0 2 3 2 -2 -2 -1 -1 -3 -1 -2 -2 -4 -3 -1
2 2 3 -0 4 1 2 1 -1 -1 1 1 1 0 -0 -1 0 1 -0 -0 0 -1
4 1 -0 0 -1 2 -2 -1 1 -0 -0 -0 2 4 1 -1 -1 1 -1 -1 2 0
-3 -1 0 2 3 1 -0 -1 -1 -1 -0 0 -0 2 1 0 -3 -1 0 0 -4 -2
8 4 6 1 -2 -2 1 0 0 -1 -1 0 -1 1 0 -0 -2 -2 -3 0 -1 2
6 3 2 3 -1 -3 1 1 -1 -0 -1 -2 -3 -0 3 2 -1 -1 -2 0 -4 -1
Height
5698 5699 5700 5702 5705 5708 5707 5709 5714 5716 5717 5720 5723 5724 5726 5729 5731 5733 5734 5736 5739 5740
5698 5698 5698 5700 5701 5701 5704 5707 5710 5712 5714 5717 5719 5721 5723 5725 5726 5728 5730 5732 5735 5735
5696 5697 5698 5700 5700 5702 5703 5705 5707 5711 5713 5715 5716 5717 5720 5723 5726 5726 5728 5728 5728 5729
5694 5695 5696 5697 5698 5700 5702 5703 5705 5708 5711 5713 5713 5714 5717 5720 5720 5722 5722 5722 5721 5721
5691 5693 5695 5696 5699 5700 5701 5702 5705 5706 5706 5707 5709 5711 5712 5714 5714 5715 5716 5715 5715 5715
5687 5689 5691 5694 5696 5698 5699 5701 5703 5704 5704 5705 5705 5707 5708 5708 5708 5708 5708 5708 5707 5707
5684 5685 5687 5688 5690 5692 5693 5694 5695 5696 5697 5699 5700 5700 5700 5700 5700 5699 5699 5699 5698 5698
5679 5680 5681 5683 5684 5685 5687 5688 5688 5689 5690 5690 5692 5692 5690 5690 5691 5691 5690 5690 5689 5688
5675 5675 5676 5677 5679 5680 5681 5681 5682 5683 5683 5682 5682 5682 5681 5680 5680 5679 5678 5677 5677 5676
5668 5669 5670 5671 5672 5674 5674 5674 5674 5674 5673 5672 5672 5673 5672 5671 5670 5670 5668 5667 5665 5663
5663 5663 5664 5665 5666 5666 5666 5666 5666 5666 5665 5665 5665 5666 5665 5663 5661 5659 5657 5656 5654 5652
5653 5656 5656 5658 5659 5660 5659 5659 5659 5659 5658 5657 5656 5656 5656 5654 5652 5650 5648 5646 5642 5640
5644 5646 5648 5649 5649 5650 5650 5650 5650 5649 5648 5648 5647 5646 5645 5643 5641 5639 5636 5634 5631 5628
5633 5635 5636 5638 5639 5639 5639 5640 5640 5639 5638 5637 5636 5635 5633 5631 5629 5626 5624 5621 5618 5614